Flag for U.S.A. Weather past 2 weeks in Rockford, Illinois, U.S.A.

45 °F

Passing clouds.

Feels Like: 45 °F
Forecast: 44 / 66 °F
Wind: No wind

Location: Greater Rockford Airport

Current Time: Oct 10, 2015 at 3:03:52 AM

Latest Report: Oct 10, 2015 at 1:54 AM

Visibility: 10 mi

Pressure: 30.28 "Hg

Humidity: 86%

Dew point: 41 °F

Location of RockfordLocation

Historic Weather in Rockford — Graph


Rockford temperature yesterday

Maximum temperature yesterday: 62 °F (at 12:54 AM)
Minimum temperature yesterday: 44 °F (at 10:54 PM)
Average temperature yesterday: 55 °F

Past Weeks' High & Low Weather Summary

High80 °F (Sep 28, 4:54 PM)96% (Oct 6, 7:54 AM)30.41 "Hg (Oct 6, 7:54 AM)
Low44 °F (Oct 9, 10:54 PM)43% (Sep 25, 2:54 PM)29.85 "Hg (Oct 8, 4:54 PM)
Average60 °F74%30.18 "Hg
* Reported Sep 25 1:54 AM — Oct 10 1:54 AM, Rockford, Weather by CustomWeather, © 2015

Note: Actual official high and low records may vary slightly from our data, if they occured in-between our weather recording intervals... More about our weather records


Rockford weather history for previous 24 hours

Time TempWeatherWind HumidityBarometerVisibility
1:54 AM
Sat, Oct 10
45 °FPassing clouds.No wind86%30.28 "Hg10 mi
12:54 AM45 °FPassing clouds.No wind90%30.28 "Hg10 mi
11:54 PM
Fri, Oct 9
45 °FPassing clouds.No wind90%30.28 "Hg10 mi
10:54 PM44 °FClear.3 mph93%30.27 "Hg10 mi
9:54 PM47 °FClear.No wind90%30.27 "Hg10 mi
8:54 PM48 °FPassing clouds.No wind83%30.26 "Hg10 mi
7:54 PM50 °FPassing clouds.No wind74%30.26 "Hg10 mi
6:54 PM53 °FPassing clouds.No wind66%30.24 "Hg10 mi
5:54 PM57 °FPassing clouds.5 mph58%30.22 "Hg10 mi
4:54 PM59 °FScattered clouds.13 mph56%30.22 "Hg10 mi
3:54 PM61 °FOvercast.13 mph52%30.21 "Hg10 mi
2:54 PM59 °FMore clouds than sun.10 mph58%30.19 "Hg10 mi
1:54 PM58 °FOvercast.8 mph60%30.22 "Hg10 mi
12:54 PM58 °FOvercast.9 mph60%30.23 "Hg10 mi
11:54 AM57 °FOvercast.8 mph62%30.23 "Hg10 mi
10:54 AM56 °FOvercast.10 mph67%30.21 "Hg10 mi
9:54 AM56 °FMore clouds than sun.10 mph70%30.19 "Hg10 mi
8:54 AM55 °FOvercast.12 mph72%30.18 "Hg10 mi
7:54 AM54 °FMostly cloudy.12 mph72%30.15 "Hg10 mi
6:54 AM53 °FPassing clouds.12 mph74%30.11 "Hg10 mi
5:54 AM54 °FPassing clouds.12 mph72%30.08 "Hg10 mi
4:54 AM57 °FMostly cloudy.17 mph72%30.05 "Hg10 mi
3:54 AM58 °FOvercast.15 mph78%30.02 "Hg10 mi
Weather by CustomWeather, © 2015

See weather overviewHow to use our weather pages